Date String (YYYY-MM-DD hh:mm:ss) UTC,Instrument flags,Ambient pressure (hPa),Sample flow (lpm),Bypass flow (lpm),Sample temperature (°C),Ambient temperature (°C),ASC tube jacket temperature (°C),LED temperature (°C),Box temperature (°C),Sample RH (%),Span deviation,Mass concentration (μg/m³),Mass concentration (μg/m³),Mass concentration (μg/m³)
DateTimeUTC,F1_M11,P_M11,Q1_M11,Q2_M11,T1_M11,T2_M11,T3_M11,T4_M11,T5_M11,U1_M11,ZSPAN_M11,X0_M11,X2_M11,X1_M11
2021-11-22 04:00:00,,0832.4,5.00,0.00,26.1,25.2,00.0,35.2,27.9,09.0,0000.0,0009.90,0003.79,0003.41
2021-11-22 04:01:00,,0832.4,4.99,0.00,26.1,25.2,00.0,35.2,27.9,09.0,0000.0,0010.02,0003.80,0003.41
2021-11-22 04:02:00,,0832.4,4.99,0.00,26.1,25.2,00.0,35.2,27.9,09.1,0000.0,0010.31,0003.79,0003.42
2021-11-22 04:03:00,,0832.3,5.00,0.00,26.1,25.2,00.0,35.2,27.9,09.1,0000.0,0010.19,0003.79,0003.43
2021-11-22 04:04:00,,0832.3,5.01,0.00,26.1,25.2,00.0,35.2,27.8,09.0,0000.0,0010.08,0003.78,0003.44
2021-11-22 04:05:00,,0832.3,4.99,0.00,26.1,25.2,00.0,35.2,27.9,08.9,0000.0,0009.61,0003.78,0003.45
2021-11-22 04:06:00,,0832.3,5.01,0.00,26.1,25.1,00.0,35.1,27.8,08.9,0000.0,0009.35,0003.77,0003.44
2021-11-22 04:07:00,,0832.3,4.99,0.00,26.1,25.1,00.0,35.1,27.8,08.8,0000.0,0008.98,0003.75,0003.43
2021-11-22 04:08:00,,0832.4,5.01,0.00,26.1,25.1,00.0,35.1,27.8,08.6,0000.0,0008.31,0003.75,0003.40
2021-11-22 04:09:00,,0832.4,5.00,0.00,26.1,25.1,00.0,35.1,27.8,08.6,0000.0,0008.08,0003.72,0003.38
2021-11-22 04:10:00,,0832.4,5.00,0.00,26.1,25.1,00.0,35.1,27.8,08.7,0000.0,0008.10,0003.69,0003.37
2021-11-22 04:11:00,,0832.3,5.01,0.00,26.1,25.1,00.0,35.1,27.8,08.9,0000.0,0007.68,0003.69,0003.36
2021-11-22 04:12:00,,0832.3,5.00,0.00,26.0,25.1,00.0,35.1,27.8,09.0,0000.0,0007.55,0003.69,0003.37
2021-11-22 04:13:00,,0832.3,4.99,0.00,26.0,25.1,00.0,35.1,27.8,09.0,0000.0,0007.00,0003.73,0003.37
2021-11-22 04:14:00,,0832.4,5.01,0.00,26.0,25.1,00.0,35.1,27.8,09.1,0000.0,0007.11,0003.75,0003.37
2021-11-22 04:15:00,,0832.3,4.99,0.00,26.0,25.1,00.0,35.1,27.7,09.1,0000.0,0007.27,0003.75,0003.36
2021-11-22 04:16:00,,0832.3,5.01,0.00,26.0,25.1,00.0,35.1,27.7,09.1,0000.0,0007.43,0003.75,0003.36
2021-11-22 04:17:00,,0832.3,4.99,0.00,26.0,25.1,00.0,35.1,27.8,09.1,0000.0,0007.47,0003.75,0003.35
2021-11-22 04:18:00,,0832.3,5.02,0.00,26.0,25.1,00.0,35.1,27.8,09.0,0000.0,0007.47,0003.75,0003.36
2021-11-22 04:19:00,,0832.3,4.99,0.00,26.0,25.1,00.0,35.1,27.7,08.9,0000.0,0007.43,0003.77,0003.38
2021-11-22 04:20:00,,0832.3,5.00,0.00,26.0,25.1,00.0,35.1,27.8,09.0,0000.0,0007.54,0003.81,0003.41
2021-11-22 04:21:00,,0832.3,4.99,0.00,26.0,25.1,00.0,35.1,27.8,09.0,0000.0,0007.44,0003.88,0003.45
2021-11-22 04:22:00,,0832.4,5.01,0.00,26.0,25.1,00.0,35.1,27.8,09.0,0000.0,0007.23,0003.90,0003.46
2021-11-22 04:23:00,,0832.4,5.00,0.00,26.0,25.1,00.0,35.1,27.8,09.1,0000.0,0007.16,0003.91,0003.47
2021-11-22 04:24:00,,0832.4,5.00,0.00,26.0,25.1,00.0,35.0,27.7,09.0,0000.0,0007.20,0003.91,0003.48
2021-11-22 04:25:00,,0832.4,4.99,0.00,26.0,25.1,00.0,35.0,27.7,09.0,0000.0,0007.40,0003.93,0003.48
2021-11-22 04:26:00,,0832.3,5.00,0.00,26.0,25.1,00.0,35.0,27.7,09.0,0000.0,0007.46,0003.91,0003.48
2021-11-22 04:27:00,,0832.3,5.00,0.00,26.0,25.1,00.0,35.0,27.7,08.9,0000.0,0007.27,0003.90,0003.48
2021-11-22 04:28:00,,0832.3,5.01,0.00,26.0,25.0,00.0,35.0,27.8,08.9,0000.0,0007.23,0003.90,0003.49
2021-11-22 04:29:00,,0832.2,5.00,0.00,26.0,25.0,00.0,35.0,27.8,08.9,0000.0,0007.47,0003.94,0003.49
2021-11-22 04:30:00,,0832.3,4.99,0.00,26.0,25.1,00.0,35.0,27.8,08.9,0000.0,0007.56,0003.93,0003.49
2021-11-22 04:31:00,,0832.2,5.00,0.00,26.0,25.1,00.0,35.0,27.8,09.0,0000.0,0007.61,0003.95,0003.50
2021-11-22 04:32:00,,0832.3,5.00,0.00,26.0,25.1,00.0,35.0,27.8,09.0,0000.0,0007.97,0003.93,0003.50
2021-11-22 04:33:00,,0832.3,4.99,0.00,26.0,25.1,00.0,35.0,27.7,09.1,0000.0,0008.07,0003.89,0003.50
2021-11-22 04:34:00,,0832.4,4.99,0.00,26.0,25.1,00.0,35.0,27.7,09.2,0000.0,0008.12,0003.91,0003.50
2021-11-22 04:35:00,,0832.4,5.00,0.00,26.0,25.1,00.0,35.0,27.8,09.1,0000.0,0008.44,0003.93,0003.51
2021-11-22 04:36:00,,0832.3,5.00,0.00,26.0,25.1,00.0,35.0,27.8,08.8,0000.0,0008.53,0003.88,0003.50
2021-11-22 04:37:00,,0832.3,5.00,0.00,26.0,25.1,00.0,35.0,27.7,08.8,0000.0,0008.47,0003.87,0003.50
2021-11-22 04:38:00,,0832.3,4.99,0.00,26.0,25.0,00.0,35.0,27.7,08.9,0000.0,0008.85,0003.87,0003.50
2021-11-22 04:39:00,,0832.2,5.00,0.00,26.0,25.0,00.0,35.0,27.7,09.0,0000.0,0008.85,0003.88,0003.50
2021-11-22 04:40:00,,0832.2,5.01,0.00,26.0,25.0,00.0,35.0,27.7,09.0,0000.0,0008.75,0003.86,0003.50
2021-11-22 04:41:00,,0832.2,5.00,0.00,25.9,25.0,00.0,35.0,27.7,08.6,0000.0,0009.53,0003.86,0003.49
2021-11-22 04:42:00,,0832.3,5.01,0.00,26.0,25.0,00.0,35.0,27.7,08.7,0000.0,0010.09,0003.83,0003.46
2021-11-22 04:43:00,,0832.3,4.99,0.00,25.9,25.0,00.0,35.0,27.7,08.8,0000.0,0009.89,0003.84,0003.44
2021-11-22 04:44:00,,0832.3,5.02,0.00,25.9,25.0,00.0,35.0,27.7,08.7,0000.0,0009.95,0003.83,0003.41
2021-11-22 04:45:00,,0832.3,4.99,0.00,25.9,25.0,00.0,35.0,27.7,08.6,0000.0,0010.09,0003.78,0003.38
2021-11-22 04:46:00,,0832.4,5.01,0.00,25.9,25.0,00.0,35.0,27.7,09.0,0000.0,0009.80,0003.73,0003.36
2021-11-22 04:47:00,,0832.3,5.00,0.00,25.9,25.0,00.0,34.9,27.7,09.1,0000.0,0009.49,0003.74,0003.36
2021-11-22 04:48:00,,0832.3,5.00,0.00,25.9,25.0,00.0,34.9,27.6,08.6,0000.0,0010.05,0003.76,0003.36
2021-11-22 04:49:00,,0832.4,5.00,0.00,25.9,25.0,00.0,34.9,27.6,08.4,0000.0,0009.79,0003.73,0003.32
2021-11-22 04:50:00,,0832.4,5.01,0.00,25.9,25.0,00.0,34.9,27.6,08.6,0000.0,0009.85,0003.72,0003.30
2021-11-22 04:51:00,,0832.3,5.00,0.00,25.9,24.9,00.0,34.9,27.6,08.8,0000.0,0010.27,0003.69,0003.29
2021-11-22 04:52:00,,0832.3,5.00,0.00,25.9,25.0,00.0,34.9,27.6,08.9,0000.0,0009.70,0003.68,0003.29
2021-11-22 04:53:00,,0832.3,5.01,0.00,25.9,24.9,00.0,34.9,27.6,08.8,0000.0,0009.17,0003.70,0003.31
2021-11-22 04:54:00,,0832.3,5.00,0.00,25.9,24.9,00.0,34.9,27.6,08.8,0000.0,0008.92,0003.67,0003.32
2021-11-22 04:55:00,,0832.4,4.99,0.00,25.8,24.9,00.0,34.9,27.6,08.7,0000.0,0008.58,0003.66,0003.32
2021-11-22 04:56:00,,0832.3,5.01,0.00,25.8,24.9,00.0,34.9,27.6,09.1,0000.0,0008.20,0003.66,0003.34
2021-11-22 04:57:00,,0832.2,5.01,0.00,25.8,24.9,00.0,34.9,27.6,09.2,0000.0,0008.20,0003.66,0003.34
2021-11-22 04:58:00,,0832.3,5.00,0.00,25.8,24.9,00.0,34.9,27.6,09.4,0000.0,0008.14,0003.67,0003.35
2021-11-22 04:59:00,,0832.3,5.00,0.00,25.8,24.9,00.0,34.9,27.6,09.4,0000.0,0007.85,0003.67,0003.37
